Stündliche Wetter Holstovka

Heute, 21 Juni, Montag

Zeit Temperatur Niederschläge Wind Luftdruck Luftfeuchtigkeit
00:00 +20°C° 0 mm 1 m/S 741 mmHg 83%
01:00 +20°C° 0 mm 1 m/S 742 mmHg 84%
02:00 +20°C° 0 mm 1 m/S 742 mmHg 85%
03:00 +20°C° 0 mm 1 m/S 742 mmHg 86%
04:00 +21°C° 0 mm 1 m/S 742 mmHg 83%
05:00 +22°C° 0 mm 1 m/S 742 mmHg 80%
06:00 +23°C° 0 mm 1 m/S 742 mmHg 77%
07:00 +25°C° 0 mm 1 m/S 742 mmHg 72%
08:00 +26°C° 0 mm 1 m/S 742 mmHg 67%
09:00 +28°C° 0 mm 1 m/S 742 mmHg 62%
10:00 +29°C° 0 mm 1 m/S 742 mmHg 58%
11:00 +28°C° 0 mm 0 m/S 742 mmHg 53%
12:00 +29°C° 0 mm 0 m/S 742 mmHg 49%
13:00 +29°C° 0 mm 0 m/S 742 mmHg 48%
14:00 +29°C° 0 mm 0 m/S 742 mmHg 46%
15:00 +29°C° 0 mm 0 m/S 742 mmHg 45%
16:00 +28°C° 0 mm 0 m/S 741 mmHg 50%
17:00 +28°C° 0 mm 0 m/S 741 mmHg 56%
18:00 +29°C° 0 mm 1 m/S 741 mmHg 61%
19:00 +28°C° 0 mm 1 m/S 741 mmHg 64%
20:00 +24°C° 0 mm 0 m/S 741 mmHg 67%
21:00 +23°C° 0 mm 0 m/S 741 mmHg 70%
22:00 +22°C° 0 mm 0 m/S 741 mmHg 72%
23:00 +21°C° 0 mm 0 m/S 741 mmHg 74%

Morgen, 22 Juni, Dienstag

Zeit Temperatur Niederschläge Wind Luftdruck Luftfeuchtigkeit
00:00 +20°C° 0 mm 0 m/S 741 mmHg 76%
01:00 +22°C° 0 mm 1 m/S 741 mmHg 77%
02:00 +22°C° 0 mm 1 m/S 742 mmHg 79%
03:00 +21°C° 0 mm 1 m/S 742 mmHg 80%
04:00 +22°C° 0 mm 1 m/S 742 mmHg 77%
05:00 +23°C° 0 mm 1 m/S 742 mmHg 75%
06:00 +24°C° 0 mm 1 m/S 742 mmHg 73%
07:00 +26°C° 0 mm 1 m/S 742 mmHg 68%
08:00 +27°C° 0 mm 1 m/S 742 mmHg 63%
09:00 +29°C° 0 mm 2 m/S 742 mmHg 58%
10:00 +30°C° 0 mm 2 m/S 742 mmHg 54%
11:00 +31°C° 0 mm 1 m/S 742 mmHg 50%
12:00 +31°C° 0 mm 1 m/S 743 mmHg 47%
13:00 +32°C° 0 mm 1 m/S 742 mmHg 45%
14:00 +32°C° 0 mm 1 m/S 742 mmHg 44%
15:00 +32°C° 0 mm 1 m/S 742 mmHg 43%
16:00 +31°C° 0 mm 1 m/S 742 mmHg 48%
17:00 +31°C° 0 mm 1 m/S 742 mmHg 54%
18:00 +30°C° 0 mm 1 m/S 742 mmHg 59%
19:00 +28°C° 0 mm 1 m/S 742 mmHg 61%
20:00 +26°C° 0 mm 1 m/S 741 mmHg 62%
21:00 +23°C° 0 mm 0 m/S 741 mmHg 64%
22:00 +22°C° 0 mm 0 m/S 741 mmHg 66%
23:00 +21°C° 0 mm 0 m/S 741 mmHg 68%

übermorgen, 23 Juni, Mittwoch

Zeit Temperatur Niederschläge Wind Luftdruck Luftfeuchtigkeit
00:00 +21°C° 0 mm 0 m/S 741 mmHg 70%
01:00 +21°C° 0 mm 0 m/S 741 mmHg 70%
02:00 +20°C° 0 mm 0 m/S 741 mmHg 71%
03:00 +20°C° 0 mm 0 m/S 741 mmHg 72%
04:00 +21°C° 0 mm 0 m/S 741 mmHg 70%
05:00 +22°C° 0 mm 0 m/S 742 mmHg 68%
06:00 +24°C° 0 mm 0 m/S 742 mmHg 66%
07:00 +25°C° 0 mm 0 m/S 742 mmHg 64%
08:00 +26°C° 0 mm 0 m/S 742 mmHg 61%
09:00 +29°C° 0 mm 1 m/S 742 mmHg 59%
10:00 +28°C° 0 mm 1 m/S 742 mmHg 60%
11:00 +28°C° 0 mm 1 m/S 742 mmHg 61%
12:00 +28°C° 0 mm 2 m/S 742 mmHg 62%
13:00 +29°C° 0 mm 2 m/S 742 mmHg 56%
14:00 +30°C° 0 mm 2 m/S 741 mmHg 50%
15:00 +32°C° 0 mm 1 m/S 741 mmHg 44%
16:00 +29°C° 0.2 mm 2 m/S 741 mmHg 54%
17:00 +27°C° 0.2 mm 2 m/S 741 mmHg 65%
18:00 +25°C° 0.2 mm 2 m/S 740 mmHg 75%
19:00 +24°C° 0.1 mm 2 m/S 740 mmHg 77%
20:00 +23°C° 0.1 mm 2 m/S 741 mmHg 79%
21:00 +23°C° 0.1 mm 2 m/S 741 mmHg 80%
22:00 +21°C° 0 mm 2 m/S 741 mmHg 80%
23:00 +21°C° 0 mm 2 m/S 740 mmHg 80%

24 Juni, Donnerstag

Zeit Temperatur Niederschläge Wind Luftdruck Luftfeuchtigkeit
00:00 +21°C° 0 mm 1 m/S 740 mmHg 80%
01:00 +21°C° 0 mm 1 m/S 740 mmHg 80%
02:00 +21°C° 0 mm 1 m/S 740 mmHg 80%
03:00 +21°C° 0 mm 1 m/S 740 mmHg 80%
04:00 +22°C° 0 mm 1 m/S 740 mmHg 78%
05:00 +23°C° 0 mm 1 m/S 740 mmHg 76%
06:00 +24°C° 0 mm 1 m/S 740 mmHg 74%
07:00 +26°C° 0 mm 1 m/S 740 mmHg 69%
08:00 +27°C° 0 mm 1 m/S 741 mmHg 64%
09:00 +29°C° 0 mm 2 m/S 741 mmHg 59%
10:00 +30°C° 0 mm 2 m/S 740 mmHg 55%
11:00 +31°C° 0 mm 2 m/S 740 mmHg 50%
12:00 +31°C° 0 mm 2 m/S 740 mmHg 46%
13:00 +30°C° 0.3 mm 2 m/S 740 mmHg 52%
14:00 +29°C° 0.3 mm 2 m/S 740 mmHg 57%
15:00 +29°C° 0.3 mm 3 m/S 740 mmHg 62%
16:00 +26°C° 5.7 mm 3 m/S 740 mmHg 72%
17:00 +22°C° 5.7 mm 3 m/S 740 mmHg 82%
18:00 +19°C° 5.7 mm 4 m/S 740 mmHg 92%
19:00 +19°C° 0.5 mm 3 m/S 739 mmHg 90%
20:00 +19°C° 0.5 mm 3 m/S 739 mmHg 88%
21:00 +19°C° 0.5 mm 2 m/S 739 mmHg 86%
22:00 +19°C° 0 mm 2 m/S 738 mmHg 87%
23:00 +20°C° 0 mm 1 m/S 738 mmHg 88%

25 Juni, Freitag

Zeit Temperatur Niederschläge Wind Luftdruck Luftfeuchtigkeit
00:00 +20°C° 0 mm 1 m/S 738 mmHg 89%
01:00 +20°C° 0 mm 1 m/S 738 mmHg 89%
02:00 +18°C° 0 mm 2 m/S 738 mmHg 88%
03:00 +18°C° 0 mm 2 m/S 738 mmHg 88%
04:00 +19°C° 0 mm 2 m/S 738 mmHg 86%
05:00 +20°C° 0 mm 2 m/S 738 mmHg 84%
06:00 +22°C° 0 mm 1 m/S 738 mmHg 82%
07:00 +24°C° 0 mm 1 m/S 738 mmHg 76%
08:00 +26°C° 0 mm 1 m/S 738 mmHg 70%
09:00 +28°C° 0 mm 1 m/S 738 mmHg 64%
10:00 +29°C° 0 mm 1 m/S 738 mmHg 60%
11:00 +30°C° 0 mm 1 m/S 738 mmHg 55%
12:00 +31°C° 0 mm 2 m/S 738 mmHg 50%
13:00 +31°C° 0 mm 2 m/S 738 mmHg 50%
14:00 +33°C° 0 mm 3 m/S 738 mmHg 49%
15:00 +33°C° 0 mm 3 m/S 737 mmHg 49%
16:00 +31°C° 0 mm 3 m/S 737 mmHg 55%
17:00 +30°C° 0 mm 3 m/S 737 mmHg 61%
18:00 +30°C° 0 mm 3 m/S 737 mmHg 67%
19:00 +28°C° 0 mm 2 m/S 737 mmHg 72%
20:00 +26°C° 0 mm 2 m/S 737 mmHg 76%
21:00 +24°C° 0 mm 2 m/S 736 mmHg 81%
22:00 +23°C° 0.2 mm 2 m/S 736 mmHg 81%
23:00 +23°C° 0.2 mm 1 m/S 736 mmHg 80%

26 Juni, Samstag

Zeit Temperatur Niederschläge Wind Luftdruck Luftfeuchtigkeit
00:00 +22°C° 0.2 mm 1 m/S 736 mmHg 80%
01:00 +22°C° 0 mm 1 m/S 736 mmHg 81%
02:00 +21°C° 0 mm 2 m/S 736 mmHg 83%
03:00 +21°C° 0 mm 2 m/S 735 mmHg 84%
04:00 +23°C° 0.1 mm 2 m/S 736 mmHg 85%
05:00 +24°C° 0.1 mm 2 m/S 736 mmHg 85%
06:00 +24°C° 0.1 mm 2 m/S 736 mmHg 86%
07:00 +25°C° 0 mm 2 m/S 736 mmHg 82%
08:00 +26°C° 0 mm 2 m/S 735 mmHg 77%
09:00 +27°C° 0 mm 2 m/S 735 mmHg 73%
10:00 +29°C° 0.2 mm 2 m/S 735 mmHg 67%
11:00 +30°C° 0.2 mm 2 m/S 735 mmHg 61%
12:00 +31°C° 0.2 mm 2 m/S 735 mmHg 55%
13:00 +31°C° 0 mm 2 m/S 735 mmHg 57%
14:00 +31°C° 0 mm 2 m/S 735 mmHg 59%
15:00 +30°C° 0 mm 2 m/S 735 mmHg 61%
16:00 +29°C° 0.5 mm 3 m/S 735 mmHg 67%
17:00 +28°C° 0.5 mm 3 m/S 735 mmHg 72%
18:00 +26°C° 0.5 mm 4 m/S 734 mmHg 78%
19:00 +25°C° 0.2 mm 3 m/S 734 mmHg 76%
20:00 +23°C° 0.2 mm 2 m/S 734 mmHg 74%
21:00 +21°C° 0.2 mm 2 m/S 734 mmHg 72%
22:00 +22°C° 0 mm 1 m/S 734 mmHg 75%
23:00 +22°C° 0 mm 1 m/S 734 mmHg 77%
Mehr zeigen

Wir brauchen deine Erlaubnis

Meteoprog und unser Service Anbieter werden persönliche Daten aufbewahren, so wie Cookies, Geräte Bezeichnung oder ähnliche Technologien von deinem Gerät und Prozess, so wie Persönliche Daten Inhalte und Werbungen, genauso wie social Media und den Verkehr zu analysieren.

  • Aufbewahrung und/oder Zugang zu deiner Geräte Informationen.

    Cookies, Geräte Bezeichnung oder andere Informationen, können aufbewahrt oder Zugang zu deinem Gerät erhalten, für den Grund, der oben angegeben wird.

  • Personalisierte Werbung und Inhalte, Messungen, Einblick in das Publikum und Produkt Entwicklung.

    Werbungen und Inhalte können personalisiert werden, basierend auf ein Profil. Mehr Daten können besser personalisierte Werbungen und Inhalte hinzufügen. Werbung und Inhalte können gezeigt und gemessen werden. Einblicke über das Publikum, welche die Werbung gesehen haben und den Inhalt, können abgeleitet werden. So wie Daten können genutzt werden, um es zu verbessern oder die Benutzer Erfahrung zu verbessern das System und die Software.

Wenn du “Ich stimme zu” klickst, erlaubst du uns, die Cookies zu benutzen die Geräte Bezeichnung, den Web oder ähnliche Technologien zu benutzen. Deine Settings, können in deinem Gerät bei deinem Browser geändert werden.

Für den bestimmten Zweck, berechtigten Interessen beruhen darauf, mehr als auf den Inhalt. Du kannst mehr darüber in unseren Privaten und Cookie Politik lesen.